Monument Pass, CO

1:28 AM MST on January 16, 2018 (GMT -0700)
Monument Pass

Weather History for KMNH - March, 2013

Change the Weather History Date:

Sunday, March 17, 2013

  Actual Average Record
Temperature  
Mean Temperature 40 °F -  
Max Temperature 53 °F - 68 °F (2011)
Min Temperature 28 °F - 15 °F (2002)
Degree Days  
Heating Degree Days 24    
Month to date heating degree days  
Cooling Degree Days 0    
Month to date cooling degree days  
Moisture  
Dew Point 22 °F    
Average Humidity 56    
Maximum Humidity 87    
Minimum Humidity 19    
Precipitation  
Precipitation 0.00 in - 0.19 in (2003)
Sea Level Pressure  
Sea Level Pressure 29.71 in    
Wind  
Wind Speed 12 mph (WSW)    
Max Wind Speed 25 mph    
Max Gust Speed 36 mph    
Visibility 10 miles    
Events      
T = Trace of Precipitation, MM = Missing Value Source: NWS Daily Summary

Daily Weather History Graph

Daily Weather History Graph

Search for Another Location

Airport or City:

Trip Planner

Search our weather history database for the weather conditions in past years. The results will help you decide how hot, cold, wet, or windy it might be!

Date:

Astronomy

Mar. 17, 2013 Rise Set
Actual Time 7:06 AM MDT 7:07 PM MDT
Civil Twilight 6:39 AM MDT 7:34 PM MDT
Nautical Twilight 6:08 AM MDT 8:05 PM MDT
Astronomical Twilight 5:36 AM MDT 8:37 PM MDT
Moon 10:23 AM MDT (3/17) 12:15 AM MDT (3/17)
Length of Visible Light 12h 54m
Length of Day
12h 01m
Waxing Crescent, 32% of the Moon is Illuminated
Mar 17
Waxing Crescent
Mar 19
First Quarter
Mar 27
Full
Apr 2
Last Quarter
Apr 10
New

Hourly Weather History & Observations

Time (MDT) Temp. Windchill Dew Point Humidity Pressure Visibility Wind Dir Wind Speed Gust Speed Precip Events Conditions
12:14 AM 33.8 °F 24.3 °F 30.2 °F 87% 29.87 in 10.0 mi SW 13.8 mph - N/A   Clear
12:34 AM 32.0 °F 24.2 °F 28.4 °F 87% 29.86 in 10.0 mi SSW 9.2 mph - N/A   Clear
12:54 AM 32.0 °F 24.2 °F 28.4 °F 87% 29.86 in 10.0 mi SSW 9.2 mph - N/A   Clear
1:14 AM 33.8 °F 25.3 °F 28.4 °F 81% 29.84 in 10.0 mi SW 11.5 mph - N/A   Clear
1:34 AM 32.0 °F 24.8 °F 28.4 °F 87% 29.83 in 10.0 mi SSW 8.1 mph - N/A   Clear
1:54 AM 32.0 °F 24.8 °F 28.4 °F 87% 29.83 in 10.0 mi SSW 8.1 mph - N/A   Clear
2:14 AM 32.0 °F 23.6 °F 28.4 °F 87% 29.82 in 10.0 mi SSW 10.4 mph - N/A   Clear
2:34 AM 32.0 °F 24.8 °F 28.4 °F 87% 29.82 in 10.0 mi SSW 8.1 mph - N/A   Clear
2:54 AM 32.0 °F 22.5 °F 26.6 °F 80% 29.81 in 10.0 mi South 12.7 mph - N/A   Clear
3:14 AM 32.0 °F 23.0 °F 26.6 °F 80% 29.80 in 10.0 mi SSW 11.5 mph - N/A   Clear
3:34 AM 30.2 °F 20.8 °F 26.6 °F 86% 29.80 in 10.0 mi SSW 11.5 mph - N/A   Clear
3:54 AM 32.0 °F 24.2 °F 26.6 °F 80% 29.79 in 10.0 mi SSW 9.2 mph - N/A   Clear
4:34 AM 30.2 °F 21.9 °F 26.6 °F 86% 29.78 in 10.0 mi SSW 9.2 mph - N/A   Clear
4:54 AM 30.2 °F 23.4 °F 26.6 °F 86% 29.78 in 10.0 mi SSW 6.9 mph - N/A   Clear
5:14 AM 32.0 °F 24.8 °F 26.6 °F 80% 29.77 in 10.0 mi SSW 8.1 mph - N/A   Clear
5:34 AM 32.0 °F 24.8 °F 26.6 °F 80% 29.76 in 10.0 mi SSW 8.1 mph - N/A   Clear
5:54 AM 32.0 °F 24.8 °F 26.6 °F 80% 29.75 in 10.0 mi South 8.1 mph - N/A   Clear
6:14 AM 32.0 °F 23.6 °F 26.6 °F 80% 29.73 in 10.0 mi South 10.4 mph - N/A   Clear
6:34 AM 32.0 °F 24.2 °F 24.8 °F 75% 29.73 in 10.0 mi SSW 9.2 mph - N/A   Clear
6:54 AM 33.8 °F 27.7 °F 23.0 °F 65% 29.73 in 10.0 mi SSW 6.9 mph - N/A   Clear
7:14 AM 33.8 °F 26.4 °F 21.2 °F 60% 29.73 in 10.0 mi SW 9.2 mph - N/A   Clear
7:34 AM 32.0 °F 24.8 °F 23.0 °F 69% 29.71 in 10.0 mi South 8.1 mph - N/A   Clear
7:54 AM 32.0 °F 25.6 °F 24.8 °F 75% 29.71 in 10.0 mi SSE 6.9 mph - N/A   Clear
8:14 AM 32.0 °F 24.2 °F 26.6 °F 80% 29.71 in 10.0 mi SW 9.2 mph - N/A   Clear
8:34 AM 37.4 °F 30.3 °F 24.8 °F 60% 29.71 in 10.0 mi SW 10.4 mph - N/A   Clear
8:53 AM 41.0 °F 35.2 °F 23.0 °F 49% 29.71 in 10.0 mi SW 9.2 mph - N/A   Clear
9:14 AM 44.6 °F 37.8 °F 19.4 °F 37% 29.70 in 10.0 mi SW 15.0 mph 20.7 mph N/A   Clear
9:34 AM 44.6 °F 38.8 °F 17.6 °F 34% 29.69 in 10.0 mi SW 11.5 mph 17.3 mph N/A   Scattered Clouds
9:54 AM 44.6 °F 38.1 °F 19.4 °F 37% 29.69 in 10.0 mi WSW 13.8 mph - N/A   Scattered Clouds
10:13 AM 44.6 °F 36.6 °F 19.4 °F 37% 29.68 in 10.0 mi WSW 19.6 mph 26.5 mph N/A   Clear
10:34 AM 44.6 °F 36.9 °F 21.2 °F 39% 29.67 in 10.0 mi SW 18.4 mph 25.3 mph N/A   Scattered Clouds
10:54 AM 44.6 °F 37.8 °F 21.2 °F 39% 29.67 in 10.0 mi SW 15.0 mph - N/A   Scattered Clouds
11:14 AM 46.4 °F 40.4 °F 23.0 °F 40% 29.67 in 10.0 mi SW 13.8 mph 23.0 mph N/A   Clear
11:34 AM 48.2 °F - 24.8 °F 40% 29.66 in 10.0 mi WSW 15.0 mph 20.7 mph N/A   Scattered Clouds
11:54 AM 50.0 °F - 24.8 °F 37% 29.65 in 10.0 mi SW 21.9 mph - N/A   Scattered Clouds
12:14 PM 50.0 °F - 23.0 °F 35% 29.63 in 10.0 mi WSW 19.6 mph 28.8 mph N/A   Clear
12:34 PM 50.0 °F - 23.0 °F 35% 29.63 in 10.0 mi WSW 21.9 mph 27.6 mph N/A   Clear
12:53 PM 50.0 °F - 23.0 °F 35% 29.63 in 10.0 mi West 23.0 mph 31.1 mph N/A   Scattered Clouds
1:14 PM 51.8 °F - 21.2 °F 30% 29.60 in 10.0 mi West 13.8 mph 19.6 mph N/A   Scattered Clouds
1:34 PM 51.8 °F - 21.2 °F 30% 29.59 in 10.0 mi WNW 5.8 mph - N/A   Clear
1:54 PM 51.8 °F - 21.2 °F 30% 29.59 in 10.0 mi WNW 13.8 mph - N/A   Scattered Clouds
2:14 PM 48.2 °F - 19.4 °F 32% 29.58 in 10.0 mi NW 12.7 mph 19.6 mph N/A   Mostly Cloudy
2:34 PM 48.2 °F - 17.6 °F 30% 29.57 in 10.0 mi WNW 12.7 mph - N/A   Mostly Cloudy
2:54 PM 51.8 °F - 14.0 °F 22% 29.56 in 10.0 mi West 19.6 mph 25.3 mph N/A   Mostly Cloudy
3:13 PM 53.6 °F - 12.2 °F 19% 29.55 in 10.0 mi NW 21.9 mph 32.2 mph N/A   Scattered Clouds
3:34 PM 53.6 °F - 12.2 °F 19% 29.56 in 10.0 mi West 23.0 mph 33.4 mph N/A   Clear
3:54 PM 50.0 °F - 10.4 °F 20% 29.57 in 10.0 mi West 24.2 mph 35.7 mph N/A   Scattered Clouds
4:14 PM 46.4 °F 38.5 °F 17.6 °F 32% 29.59 in 10.0 mi West 21.9 mph 31.1 mph N/A   Mostly Cloudy
4:34 PM 50.0 °F - 19.4 °F 30% 29.59 in 10.0 mi West 25.3 mph 29.9 mph N/A   Mostly Cloudy
4:54 PM 46.4 °F 37.9 °F 15.8 °F 29% 29.60 in 10.0 mi West 25.3 mph 31.1 mph N/A   Clear
5:14 PM 48.2 °F - 19.4 °F 32% 29.61 in 10.0 mi West 17.3 mph 26.5 mph N/A   Scattered Clouds
5:34 PM 46.4 °F 38.3 °F 19.4 °F 34% 29.63 in 10.0 mi NW 23.0 mph 32.2 mph N/A   Clear
5:53 PM 42.8 °F 34.8 °F 21.2 °F 42% 29.65 in 10.0 mi NW 17.3 mph - N/A   Clear
6:14 PM 41.0 °F 32.5 °F 21.2 °F 45% 29.66 in 10.0 mi WNW 17.3 mph 21.9 mph N/A   Clear
6:33 PM 41.0 °F 32.5 °F 21.2 °F 45% 29.67 in 10.0 mi WNW 17.3 mph - N/A   Clear
6:54 PM 39.2 °F 32.0 °F 21.2 °F 49% 29.68 in 10.0 mi WNW 11.5 mph 19.6 mph N/A   Clear
7:14 PM 35.6 °F 27.5 °F 21.2 °F 56% 29.68 in 10.0 mi West 11.5 mph - N/A   Clear
7:34 PM 35.6 °F 28.0 °F 23.0 °F 60% 29.69 in 10.0 mi West 10.4 mph 16.1 mph N/A   Clear
7:54 PM 35.6 °F 26.6 °F 23.0 °F 60% 29.70 in 10.0 mi West 13.8 mph - N/A   Clear
8:13 PM 33.8 °F 24.8 °F 23.0 °F 65% 29.70 in 10.0 mi West 12.7 mph - N/A   Clear
8:34 PM 33.8 °F 24.3 °F 21.2 °F 60% 29.71 in 10.0 mi West 13.8 mph - N/A   Clear
8:54 PM 33.8 °F 24.8 °F 19.4 °F 56% 29.72 in 10.0 mi West 12.7 mph - N/A   Clear
9:14 PM 32.0 °F 23.0 °F 21.2 °F 64% 29.73 in 10.0 mi WSW 11.5 mph - N/A   Clear
9:34 PM 32.0 °F 23.6 °F 19.4 °F 60% 29.74 in 10.0 mi West 10.4 mph - N/A   Clear
9:54 PM 32.0 °F 24.8 °F 19.4 °F 60% 29.75 in 10.0 mi West 8.1 mph - N/A   Clear
10:14 PM 30.2 °F 26.7 °F 19.4 °F 64% 29.76 in 10.0 mi NNW 3.5 mph - N/A   Clear
10:34 PM 32.0 °F 24.2 °F 19.4 °F 60% 29.78 in 10.0 mi North 9.2 mph - N/A   Clear
10:54 PM 30.2 °F 22.6 °F 21.2 °F 69% 29.79 in 10.0 mi North 8.1 mph - N/A   Clear
11:14 PM 30.2 °F 20.2 °F 21.2 °F 69% 29.79 in 10.0 mi NNW 12.7 mph - N/A   Clear
11:34 PM 28.4 °F 19.7 °F 19.4 °F 69% 29.80 in 10.0 mi North 9.2 mph - N/A   Clear
11:54 PM 28.4 °F 18.0 °F 17.6 °F 64% 29.81 in 10.0 mi North 12.7 mph - N/A   Clear